GW0912 Weather Reports


time (UTC)temp
C
wind
direction
speed
KPH
gust
KPH
rain 1hr
cm
rain 24hr
cm
rain mn
cm
humidity
%
barometer
mb
20260906113352 22 270 0.0 0.0 0.00 0.00 0.00 99 1013.7
20260906112848 22 270 0.0 0.0 0.00 0.00 0.00 99 1013.5
20260906112344 22 270 0.0 0.0 0.00 0.00 0.00 99 1013.7
20260906111844 22 270 0.0 0.0 0.00 0.00 0.00 99 1013.7
20260906111343 22 270 0.0 0.0 0.00 0.00 0.00 99 1013.6
20260906110838 22 270 0.0 0.0 0.00 0.00 0.00 99 1013.5
20260906110335 22 270 0.0 0.0 0.00 0.00 0.00 98 1013.4
20260906105833 22 270 0.0 0.0 0.00 0.00 0.00 99 1013.3
20260906105329 22 270 0.0 0.0 0.00 0.00 0.00 99 1013.2
20260906104825 22 270 0.0 0.0 0.00 0.00 0.00 99 1013.2
20260906104323 22 270 0.0 0.0 0.00 0.00 0.00 99 1013.1
20260906103821 22 270 0.0 0.0 0.00 0.00 0.00 99 1013.2
20260906103315 22 240 0.0 1.6 0.00 0.00 0.00 99 1013.1
20260906102811 22 344 0.0 0.0 0.00 0.00 0.00 99 1013.2
20260906102310 22 344 0.0 0.0 0.00 0.00 0.00 99 1013.2
20260906101805 22 261 0.0 1.6 0.00 0.00 0.00 99 1013.2
20260906101300 22 279 0.0 1.6 0.00 0.00 0.00 99 1013.2
20260906100756 23 180 0.0 0.0 0.00 0.00 0.00 99 1012.9
20260906100254 23 90 0.0 0.0 0.00 0.00 0.00 99 1012.9
20260906095750 23 279 0.0 0.0 0.00 0.00 0.00 99 1012.8
20260906095245 23 279 0.0 0.0 0.00 0.00 0.00 99 1012.7
20260906094744 23 279 0.0 0.0 0.00 0.00 0.00 99 1012.9
20260906094240 23 325 0.0 0.0 0.00 0.00 0.00 99 1012.7
20260906093736 23 279 0.0 0.0 0.00 0.00 0.00 99 1012.6
20260906093231 23 270 0.0 0.0 0.00 0.00 0.00 99 1012.6
20260906092726 23 319 0.0 3.2 0.00 0.00 0.00 99 1012.4
20260906092220 23 279 0.0 3.2 0.00 0.00 0.00 99 1012.5
20260906091717 23 315 0.0 3.2 0.00 0.00 0.00 99 1012.5
20260906091213 23 306 0.0 1.6 0.00 0.00 0.00 99 1012.4
20260906090709 23 270 0.0 0.0 0.00 0.00 0.00 99 1012.5
20260906090208 23 270 0.0 1.6 0.00 0.00 0.00 99 1012.5
20260906085707 23 270 0.0 1.6 0.00 0.00 0.00 99 1012.5
20260906085206 23 270 0.0 3.2 0.00 0.00 0.00 99 1012.4
20260906084701 23 261 0.0 1.6 0.00 0.00 0.00 98 1012.6
20260906084201 23 157 0.0 0.0 0.00 0.00 0.00 98 1012.4
20260906083656 23 246 0.0 3.2 0.00 0.00 0.00 98 1012.7
20260906083151 23 166 0.0 4.8 0.00 0.00 0.00 98 1012.5
20260906082646 23 345 0.0 0.0 0.00 0.00 0.00 98 1012.5
20260906082141 23 286 0.0 0.0 0.00 0.00 0.00 98 1012.3
20260906081638 23 270 3.2 3.2 0.00 0.00 0.00 98 1012.5
20260906081132 23 270 1.6 3.2 0.00 0.00 0.00 98 1012.5
20260906080629 23 270 0.0 1.6 0.00 0.00 0.00 98 1012.6
20260906080125 23 270 0.0 0.0 0.00 0.00 0.00 98 1012.5
20260906075624 23 270 0.0 0.0 0.00 0.00 0.00 98 1012.5
20260906075119 23 255 0.0 0.0 0.00 0.00 0.00 98 1012.5
20260906074614 23 254 0.0 1.6 0.00 0.00 0.00 98 1012.8
20260906074113 23 270 1.6 3.2 0.00 0.00 0.00 98 1012.6
20260906073608 24 278 1.6 3.2 0.00 0.00 0.00 98 1012.5
20260906073104 23 270 0.0 1.6 0.00 0.00 0.00 98 1012.6
20260906072558 23 270 0.0 1.6 0.00 0.00 0.00 98 1012.7
20260906072055 23 270 0.0 1.6 0.00 0.00 0.00 98 1012.6
20260906071551 23 255 0.0 1.6 0.00 0.00 0.00 98 1012.8
20260906071045 24 270 0.0 3.2 0.00 0.00 0.00 98 1013.1
20260906070542 24 270 1.6 3.2 0.00 0.00 0.00 98 1013.0
20260906070037 24 270 0.0 0.0 0.00 0.00 0.00 98 1012.9
20260906065537 24 286 0.0 1.6 0.00 0.00 0.00 97 1013.2
20260906065033 24 279 0.0 0.0 0.00 0.00 0.00 97 1013.1
20260906064528 24 270 0.0 0.0 0.00 0.00 0.00 97 1013.1
20260906064023 24 270 0.0 0.0 0.00 0.00 0.00 97 1013.2
20260906063518 24 279 0.0 1.6 0.00 0.00 0.00 97 1013.1
20260906063014 24 270 0.0 0.0 0.00 0.00 0.00 98 1013.1
20260906062509 24 249 1.6 3.2 0.00 0.00 0.00 98 1013.2
20260906062003 24 270 0.0 0.0 0.00 0.00 0.00 98 1013.3
20260906061459 25 279 0.0 3.2 0.00 0.00 0.00 98 1013.3
20260906060953 25 270 0.0 1.6 0.00 0.00 0.00 98 1013.3
20260906060450 25 270 0.0 0.0 0.00 0.00 0.00 98 1013.4
20260906055947 25 255 0.0 1.6 0.00 0.00 0.00 98 1013.5
20260906055442 25 286 0.0 0.0 0.00 0.00 0.00 98 1013.5
20260906054938 25 286 0.0 0.0 0.00 0.00 0.00 97 1013.3
20260906054432 25 340 0.0 0.0 0.00 0.00 0.00 97 1013.2
20260906053928 25 270 0.0 0.0 0.00 0.00 0.00 97 1013.5
20260906053424 25 270 0.0 0.0 0.00 0.00 0.00 97 1013.5
20260906052920 25 270 0.0 1.6 0.00 0.00 0.00 97 1013.3
20260906052416 25 270 0.0 0.0 0.00 0.00 0.00 97 1013.4
20260906051912 25 270 0.0 0.0 0.00 0.00 0.00 97 1013.4
20260906051412 25 270 0.0 0.0 0.00 0.00 0.00 97 1013.4
20260906050908 25 270 0.0 0.0 0.00 0.00 0.00 97 1013.5
20260906050403 25 270 0.0 0.0 0.00 0.00 0.00 97 1013.6
20260906045901 25 278 0.0 0.0 0.00 0.00 0.00 97 1013.6
20260906045355 25 278 0.0 0.0 0.00 0.00 0.00 97 1013.5
20260906044851 25 278 0.0 0.0 0.00 0.00 0.00 96 1013.9
20260906044346 26 270 0.0 1.6 0.00 0.00 0.00 95 1013.9
20260906043842 26 270 0.0 0.0 0.00 0.00 0.00 95 1014.0
20260906043338 26 270 0.0 0.0 0.00 0.00 0.00 95 1013.9
20260906042833 26 270 0.0 0.0 0.00 0.00 0.00 96 1014.1
20260906042331 26 286 0.0 1.6 0.00 0.00 0.00 96 1014.0
20260906041827 26 294 0.0 1.6 0.00 0.00 0.00 98 1014.0
20260906041323 27 262 0.0 1.6 0.00 0.00 0.00 98 1014.0
20260906040822 27 353 0.0 3.2 0.00 0.00 0.00 98 1014.2
20260906040317 27 278 0.0 3.2 0.00 0.00 0.00 97 1014.0
20260906035813 27 270 0.0 1.6 0.00 0.00 0.00 97 1014.0
20260906035308 27 294 0.0 1.6 0.00 0.00 0.00 97 1014.1
20260906034804 27 286 0.0 1.6 0.00 0.00 0.00 97 1013.8
20260906034304 27 285 0.0 0.0 0.00 0.00 0.00 97 1013.7
20260906033800 27 279 0.0 1.6 0.00 0.00 0.00 97 1013.8
20260906033259 27 294 0.0 3.2 0.00 0.00 0.00 97 1013.6
20260906032755 27 279 0.0 1.6 0.00 0.00 0.00 97 1013.9
20260906032250 27 6 1.6 1.6 0.00 0.00 0.00 97 1013.6
20260906031745 27 278 0.0 0.0 0.00 0.00 0.00 97 1013.9
20260906031241 27 270 0.0 1.6 0.00 0.00 0.00 97 1013.9
20260906030741 27 279 0.0 0.0 0.00 0.00 0.00 97 1013.7
20260906030236 27 279 0.0 3.2 0.00 0.00 0.00 97 1013.7
20260906025735 27 270 0.0 1.6 0.00 0.00 0.00 97 1013.9
20260906025230 27 279 1.6 3.2 0.00 0.00 0.00 97 1013.7
20260906024729 27 285 0.0 3.2 0.00 0.00 0.00 96 1013.6
20260906024228 27 234 0.0 3.2 0.00 0.00 0.00 96 1013.6
20260906023724 27 270 0.0 1.6 0.00 0.00 0.00 96 1013.5
20260906023219 28 278 0.0 3.2 0.00 0.00 0.00 96 1013.5
20260906022714 28 270 0.0 0.0 0.00 0.00 0.00 95 1013.4
20260906022210 28 270 0.0 3.2 0.00 0.00 0.00 95 1013.6
20260906021705 28 277 0.0 3.2 0.00 0.00 0.00 94 1013.0
20260906021203 28 206 0.0 8.0 0.00 0.00 0.00 94 1012.8
20260906020653 28 235 0.0 4.8 0.00 0.00 0.00 94 1012.7
20260906020148 28 222 4.8 6.4 0.00 0.00 0.00 94 1013.2
20260906015642 28 255 0.0 3.2 0.00 0.00 0.00 94 1013.3
20260906015140 28 0 0.0 3.2 0.00 0.00 0.00 94 1013.3
20260906014635 28 350 3.2 3.2 0.00 0.00 0.00 93 1012.8
20260906014131 28 94 3.2 8.0 0.00 0.00 0.00 93 1012.6
20260906013626 28 0 0.0 9.7 0.00 0.00 0.00 93 1011.9
20260906013122 28 349 4.8 6.4 0.00 0.00 0.00 93 1011.5
20260906012617 28 246 0.0 6.4 0.00 0.00 0.00 93 1012.1
20260906012117 28 210 0.0 3.2 0.00 0.00 0.00 93 1012.3
20260906011612 28 220 0.0 0.0 0.00 0.00 0.00 93 1012.7
20260906011107 28 99 0.0 1.6 0.00 0.00 0.00 93 1012.9
20260906010602 28 344 3.2 3.2 0.00 0.00 0.00 94 1013.4
20260906010058 28 279 0.0 1.6 0.00 0.00 0.00 94 1013.3
20260906005558 28 294 0.0 1.6 0.00 0.00 0.00 93 1013.1
20260906005057 28 294 0.0 3.2 0.00 0.00 0.00 93 1013.2
20260906004556 28 286 0.0 1.6 0.00 0.00 0.00 92 1013.3
20260906004051 28 278 0.0 3.2 0.00 0.00 0.00 92 1013.2
20260906003546 28 173 1.6 8.0 0.00 0.00 0.00 91 1013.4
20260906003042 28 188 0.0 8.0 0.00 0.00 0.00 91 1013.5
20260906002537 28 254 0.0 8.0 0.00 0.00 0.00 92 1013.5
20260906002031 28 270 0.0 1.6 0.00 0.00 0.00 91 1013.4
20260906001527 28 276 3.2 3.2 0.00 0.00 0.00 91 1013.3
20260906001021 28 195 0.0 1.6 0.00 0.00 0.00 91 1013.7
20260906000517 28 245 0.0 8.0 0.00 0.00 0.00 90 1013.7
20260906000012 29 154 0.0 3.2 0.00 0.00 0.00 89 1013.8
20260905235506 29 79 0.0 3.2 0.00 0.00 0.00 89 1013.8
20260905235001 29 238 0.0 4.8 0.00 0.00 0.00 89 1013.6
20260905234456 29 270 0.0 1.6 0.00 0.00 0.00 88 1013.2
20260905233950 29 241 0.0 6.4 0.00 0.00 0.00 88 1013.4
20260905233446 29 253 0.0 11.3 0.00 0.00 0.00 88 1013.6
20260905232944 29 25 4.8 4.8 0.00 0.00 0.00 88 1013.5
20260905232441 30 180 0.0 4.8 0.00 0.00 0.00 88 1013.5
20260905231936 30 203 4.8 4.8 0.00 0.00 0.00 88 1013.5
20260905231432 30 168 0.0 1.6 0.00 0.00 0.00 87 1013.5
20260905230928 30 20 0.0 3.2 0.00 0.00 0.00 86 1013.2
20260905230427 30 129 0.0 4.8 0.00 0.00 0.00 86 1013.3
20260905225925 30 107 3.2 12.9 0.00 0.00 0.00 85 1013.2
20260905225420 30 103 0.0 4.8 0.00 0.00 0.00 85 1013.1
20260905224915 30 203 0.0 4.8 0.00 0.00 0.00 85 1013.3
20260905224411 31 131 3.2 3.2 0.00 0.00 0.00 84 1013.4
20260905223905 31 204 0.0 11.3 0.00 0.00 0.00 83 1013.4
20260905223404 31 141 0.0 8.0 0.00 0.00 0.00 83 1013.2
20260905222903 31 206 0.0 4.8 0.00 0.00 0.00 83 1012.9
20260905222403 31 191 0.0 8.0 0.00 0.00 0.00 82 1013.0
20260905221858 32 192 0.0 6.4 0.00 0.00 0.00 81 1012.8
20260905221355 32 246 0.0 8.0 0.00 0.00 0.00 81 1013.0
20260905220850 32 114 3.2 4.8 0.00 0.00 0.00 80 1013.0
20260905220347 32 90 0.0 4.8 0.00 0.00 0.00 79 1013.0
20260905215846 32 145 1.6 8.0 0.00 0.00 0.00 79 1012.9
20260905215342 32 26 4.8 8.0 0.00 0.00 0.00 80 1012.9
20260905214838 32 95 0.0 4.8 0.00 0.00 0.00 81 1013.0
20260905214333 32 90 0.0 8.0 0.00 0.00 0.00 81 1012.9
20260905213827 32 63 4.8 8.0 0.00 0.00 0.00 81 1013.0
20260905213324 32 90 0.0 4.8 0.00 0.00 0.00 81 1012.9
20260905212819 32 164 4.8 8.0 0.00 0.00 0.00 82 1013.1
20260905212318 32 209 3.2 6.4 0.00 0.00 0.00 82 1013.0
20260905211813 32 267 0.0 8.0 0.00 0.00 0.00 82 1012.9
20260905211308 32 110 4.8 8.0 0.00 0.00 0.00 82 1012.7
20260905210805 32 101 6.4 9.7 0.00 0.00 0.00 82 1012.7
20260905210304 32 140 8.0 9.7 0.00 0.00 0.00 80 1012.7
20260905205803 32 114 1.6 8.0 0.00 0.00 0.00 82 1012.6
20260905205258 32 247 4.8 9.7 0.00 0.00 0.00 81 1012.4
20260905204757 32 270 0.0 11.3 0.00 0.00 0.00 80 1012.6
20260905204254 33 4 3.2 6.4 0.00 0.00 0.00 79 1012.5
20260905203752 33 135 0.0 6.4 0.00 0.00 0.00 80 1012.3
20260905203248 33 99 1.6 6.4 0.00 0.00 0.00 78 1012.2
20260905202743 33 300 3.2 6.4 0.00 0.00 0.00 78 1012.3
20260905202238 34 75 4.8 4.8 0.00 0.00 0.00 76 1012.4
20260905201734 34 341 0.0 6.4 0.00 0.00 0.00 74 1012.3
20260905201229 33 83 0.0 4.8 0.00 0.00 0.00 76 1012.4
20260905200724 33 344 3.2 6.4 0.00 0.00 0.00 78 1012.6
20260905200220 33 172 0.0 3.2 0.00 0.00 0.00 78 1012.4
20260905195718 32 75 1.6 8.0 0.00 0.00 0.00 79 1012.4
20260905195212 32 147 0.0 6.4 0.00 0.00 0.00 81 1012.7
20260905194708 32 131 3.2 8.0 0.00 0.00 0.00 79 1012.7
20260905194208 33 74 3.2 6.4 0.00 0.00 0.00 77 1012.8
20260905193702 33 53 4.8 8.0 0.00 0.00 0.00 75 1012.6
20260905193157 33 84 4.8 12.9 0.00 0.00 0.00 77 1012.7
20260905192653 33 127 4.8 6.4 0.00 0.00 0.00 76 1012.7
20260905192149 32 71 3.2 6.4 0.00 0.00 0.00 78 1012.9
20260905191648 32 99 0.0 4.8 0.00 0.00 0.00 79 1013.2
20260905191146 33 72 4.8 9.7 0.00 0.00 0.00 77 1013.2
20260905190645 32 251 0.0 8.0 0.00 0.00 0.00 77 1013.4
20260905190144 33 90 0.0 6.4 0.00 0.00 0.00 74 1013.5
20260905185643 35 108 0.0 9.7 0.00 0.00 0.00 72 1013.6
20260905185138 36 264 3.2 6.4 0.00 0.00 0.00 70 1013.7
20260905184632 35 248 4.8 6.4 0.00 0.00 0.00 72 1013.7
20260905184131 34 112 4.8 16.1 0.00 0.00 0.00 74 1013.6
20260905183630 35 309 3.2 4.8 0.00 0.00 0.00 70 1013.7
20260905183126 35 331 3.2 11.3 0.00 0.00 0.00 72 1013.8
20260905182625 35 261 0.0 4.8 0.00 0.00 0.00 67 1013.9
20260905182125 36 270 0.0 3.2 0.00 0.00 0.00 67 1014.0
20260905181620 34 82 0.0 6.4 0.00 0.00 0.00 70 1014.3
20260905181119 34 266 0.0 4.8 0.00 0.00 0.00 70 1014.0
20260905180614 32 270 1.6 6.4 0.00 0.00 0.00 73 1014.3
20260905180109 33 131 3.2 6.4 0.00 0.00 0.00 74 1014.2
20260905175609 35 148 3.2 6.4 0.00 0.00 0.00 70 1014.2
20260905175104 35 251 3.2 6.4 0.00 0.00 0.00 69 1014.4
20260905174600 35 145 0.0 6.4 0.00 0.00 0.00 67 1014.2
20260905174055 35 72 4.8 6.4 0.00 0.00 0.00 66 1014.5
20260905173551 35 126 3.2 8.0 0.00 0.00 0.00 68 1014.7
20260905173047 35 95 0.0 3.2 0.00 0.00 0.00 68 1014.6
20260905172545 34 270 0.0 0.0 0.00 0.00 0.00 71 1014.8
20260905172040 35 12 0.0 3.2 0.00 0.00 0.00 69 1014.9
20260905171537 33 343 3.2 4.8 0.00 0.00 0.00 70 1014.9
20260905171033 34 264 3.2 3.2 0.00 0.00 0.00 72 1014.9
20260905170529 34 14 0.0 4.8 0.00 0.00 0.00 71 1015.1
20260905170024 32 279 0.0 3.2 0.00 0.00 0.00 72 1015.0
20260905165519 33 294 0.0 4.8 0.00 0.00 0.00 71 1015.2
20260905165014 33 32 3.2 4.8 0.00 0.00 0.00 70 1015.2
20260905164508 34 289 3.2 3.2 0.00 0.00 0.00 69 1015.3
20260905164003 33 11 0.0 3.2 0.00 0.00 0.00 73 1015.4
20260905163459 34 312 3.2 4.8 0.00 0.00 0.00 71 1015.6
20260905162954 33 202 6.4 6.4 0.00 0.00 0.00 71 1015.6
20260905162450 33 142 3.2 4.8 0.00 0.00 0.00 71 1015.8
20260905161945 33 237 0.0 3.2 0.00 0.00 0.00 74 1015.9
20260905161444 32 210 3.2 4.8 0.00 0.00 0.00 77 1016.1
20260905160942 32 341 3.2 4.8 0.00 0.00 0.00 74 1016.2
20260905160436 33 275 0.0 4.8 0.00 0.00 0.00 72 1016.1
20260905155935 34 30 4.8 4.8 0.00 0.00 0.00 73 1016.2
20260905155430 33 300 0.0 4.8 0.00 0.00 0.00 75 1016.2
20260905154929 32 246 0.0 3.2 0.00 0.00 0.00 76 1016.3
20260905154425 33 292 3.2 6.4 0.00 0.00 0.00 73 1016.3
20260905153920 32 194 0.0 6.4 0.00 0.00 0.00 74 1016.4
20260905153417 32 321 4.8 6.4 0.00 0.00 0.00 77 1016.5
20260905152916 32 283 0.0 6.4 0.00 0.00 0.00 77 1016.5
20260905152415 32 326 3.2 4.8 0.00 0.00 0.00 77 1016.4
20260905151910 31 85 3.2 3.2 0.00 0.00 0.00 80 1016.3
20260905151401 31 275 3.2 4.8 0.00 0.00 0.00 80 1016.5
20260905150900 32 270 0.0 3.2 0.00 0.00 0.00 78 1016.7
20260905150355 31 300 4.8 4.8 0.00 0.00 0.00 82 1016.6
20260905145852 30 261 1.6 4.8 0.00 0.00 0.00 83 1016.5
20260905145352 32 243 1.6 6.4 0.00 0.00 0.00 79 1016.6
20260905144846 31 0 1.6 4.8 0.00 0.00 0.00 80 1016.6
20260905144342 31 74 0.0 6.4 0.00 0.00 0.00 82 1016.6
20260905143839 30 8 0.0 3.2 0.00 0.00 0.00 82 1016.5
20260905143334 31 199 4.8 6.4 0.00 0.00 0.00 82 1016.6
20260905142834 30 259 0.0 0.0 0.00 0.00 0.00 84 1016.5
20260905142332 31 297 3.2 6.4 0.00 0.00 0.00 82 1016.5
20260905141829 31 340 1.6 3.2 0.00 0.00 0.00 84 1016.5
20260905141324 30 263 0.0 4.8 0.00 0.00 0.00 86 1016.5
20260905140820 30 352 0.0 6.4 0.00 0.00 0.00 87 1016.5
20260905140320 30 315 3.2 3.2 0.00 0.00 0.00 86 1016.5
20260905135818 30 270 1.6 3.2 0.00 0.00 0.00 87 1016.4
20260905135314 30 243 0.0 3.2 0.00 0.00 0.00 87 1016.6
20260905134809 30 270 0.0 3.2 0.00 0.00 0.00 88 1016.5
20260905134303 30 294 1.6 8.0 0.00 0.00 0.00 88 1016.7
20260905133757 29 306 1.6 4.8 0.00 0.00 0.00 89 1016.8
20260905133253 28 319 3.2 4.8 0.00 0.00 0.00 90 1016.8
20260905132751 28 297 3.2 4.8 0.00 0.00 0.00 90 1016.7
20260905132247 28 270 0.0 3.2 0.00 0.00 0.00 92 1016.7
20260905131742 28 291 1.6 4.8 0.00 0.00 0.00 93 1016.7
20260905131237 28 291 0.0 4.8 0.00 0.00 0.00 94 1016.8
20260905130732 28 295 0.0 4.8 0.00 0.00 0.00 94 1016.9
20260905130231 27 325 0.0 3.2 0.00 0.00 0.00 95 1016.8
20260905125727 27 337 0.0 3.2 0.00 0.00 0.00 96 1016.9
20260905125221 27 292 0.0 3.2 0.00 0.00 0.00 97 1016.9
20260905124718 27 254 0.0 3.2 0.00 0.00 0.00 98 1016.7
20260905124214 26 311 3.2 3.2 0.00 0.00 0.00 99 1016.6
20260905123708 26 278 1.6 4.8 0.00 0.00 0.00 99 1016.6
20260905123205 26 306 0.0 3.2 0.00 0.00 0.00 99 1016.5
20260905122705 26 270 1.6 4.8 0.00 0.00 0.00 99 1016.6
20260905122159 26 353 0.0 3.2 0.00 0.00 0.00 99 1016.7
20260905121654 26 286 0.0 4.8 0.00 0.00 0.00 99 1016.7
20260905121150 25 254 1.6 3.2 0.00 0.00 0.00 99 1016.8
20260905120649 25 285 0.0 1.6 0.00 0.00 0.00 99 1016.7
20260905120144 25 270 0.0 3.2 0.00 0.00 0.00 99 1016.7
20260905115644 25 325 1.6 1.6 0.00 0.00 0.00 99 1016.6
20260905115139 25 270 0.0 3.2 0.00 0.00 0.00 99 1016.7
20260905114638 25 294 0.0 1.6 0.00 0.00 0.00 99 1016.4
20260905114137 25 283 0.0 1.6 0.00 0.00 0.00 99 1016.3